Time,TemperatureF,DewpointF,PressureIn,WindDirection,WindDirectionDegrees,WindSpeedMPH,WindSpeedGustMPH,Humidity,HourlyPrecipIn,Conditions,Clouds,dailyrainin,SolarRadiationWatts/m^2,SoftwareType,DateUTC
2013-06-16 00:00:00,65.0,60.0,-100.00,South,180,6.0,-999.0,83,-99.99,,,-99.99,0.000000,,2013-06-16 04:00:00,
2013-06-16 00:34:00,65.0,60.0,-100.00,South,180,6.0,-999.0,83,-99.99,,,-99.99,0.000000,,2013-06-16 04:34:00,
2013-06-16 00:43:00,65.0,60.0,-100.00,South,180,6.0,-999.0,83,-99.99,,,-99.99,0.000000,,2013-06-16 04:43:00,
2013-06-16 00:53:00,65.0,60.0,-100.00,South,180,6.0,-999.0,83,-99.99,,,-99.99,0.000000,,2013-06-16 04:53:00,
2013-06-16 03:00:00,63.0,62.0,-100.00,South,180,6.0,-999.0,96,0.15,,,-99.99,0.000000,,2013-06-16 07:00:00,
2013-06-16 03:33:00,63.0,62.0,-100.00,South,180,6.0,-999.0,96,0.15,,,-99.99,0.000000,,2013-06-16 07:33:00,
2013-06-16 03:43:00,63.0,62.0,-100.00,South,180,6.0,-999.0,96,0.15,,,-99.99,0.000000,,2013-06-16 07:43:00,
2013-06-16 03:53:00,63.0,62.0,-100.00,South,180,6.0,-999.0,96,0.15,,,-99.99,0.000000,,2013-06-16 07:53:00,
2013-06-16 05:00:00,65.0,63.0,-100.00,WSW,247,11.0,-999.0,95,-99.99,,,-99.99,0.000000,,2013-06-16 09:00:00,
2013-06-16 05:33:00,65.0,63.0,-100.00,WSW,247,11.0,-999.0,95,-99.99,,,-99.99,0.000000,,2013-06-16 09:33:00,
2013-06-16 05:43:00,65.0,63.0,-100.00,WSW,247,11.0,-999.0,95,-99.99,,,-99.99,0.000000,,2013-06-16 09:43:00,
2013-06-16 05:52:00,65.0,63.0,-100.00,WSW,247,11.0,-999.0,95,-99.99,,,-99.99,0.000000,,2013-06-16 09:52:00,
2013-06-16 10:00:00,66.0,63.0,-100.00,WNW,292,8.0,-999.0,91,-99.99,,,-99.99,299.279999,,2013-06-16 14:00:00,
2013-06-16 10:34:00,66.0,63.0,-100.00,WNW,292,8.0,-999.0,91,-99.99,,,-99.99,299.279999,,2013-06-16 14:34:00,
2013-06-16 10:44:00,66.0,63.0,-100.00,WNW,292,8.0,-999.0,91,-99.99,,,-99.99,299.279999,,2013-06-16 14:44:00,
2013-06-16 10:53:00,66.0,63.0,-100.00,WNW,292,8.0,-999.0,91,-99.99,,,-99.99,299.279999,,2013-06-16 14:53:00,
2013-06-16 11:00:00,69.0,64.0,-100.00,WNW,292,9.0,-999.0,84,-99.99,,,-99.99,535.919983,,2013-06-16 15:00:00,
2013-06-16 11:34:00,69.0,64.0,-100.00,WNW,292,9.0,-999.0,84,-99.99,,,-99.99,535.919983,,2013-06-16 15:34:00,
2013-06-16 11:43:00,69.0,64.0,-100.00,WNW,292,9.0,-999.0,84,-99.99,,,-99.99,535.919983,,2013-06-16 15:43:00,
2013-06-16 11:53:00,69.0,64.0,-100.00,WNW,292,9.0,-999.0,84,-99.99,,,-99.99,535.919983,,2013-06-16 15:53:00,
2013-06-16 13:00:00,73.0,66.0,-100.00,West,270,9.0,-999.0,77,-99.99,,,-99.99,756.320007,,2013-06-16 17:00:00,
2013-06-16 13:34:00,73.0,66.0,-100.00,West,270,9.0,-999.0,77,-99.99,,,-99.99,756.320007,,2013-06-16 17:34:00,
2013-06-16 13:43:00,73.0,66.0,-100.00,West,270,9.0,-999.0,77,-99.99,,,-99.99,756.320007,,2013-06-16 17:43:00,
2013-06-16 13:53:00,73.0,66.0,-100.00,West,270,9.0,-999.0,77,-99.99,,,-99.99,756.320007,,2013-06-16 17:53:00,
2013-06-16 14:00:00,74.0,65.0,-100.00,West,270,9.0,-999.0,74,-99.99,,,-99.99,777.200012,,2013-06-16 18:00:00,
2013-06-16 14:34:00,74.0,65.0,-100.00,West,270,9.0,-999.0,74,-99.99,,,-99.99,777.200012,,2013-06-16 18:34:00,
2013-06-16 14:43:00,74.0,65.0,-100.00,West,270,9.0,-999.0,74,-99.99,,,-99.99,777.200012,,2013-06-16 18:43:00,
2013-06-16 14:52:00,74.0,65.0,-100.00,West,270,9.0,-999.0,74,-99.99,,,-99.99,777.200012,,2013-06-16 18:52:00,
2013-06-16 15:00:00,76.0,64.0,-100.00,West,270,10.0,-999.0,67,-99.99,,,-99.99,866.520020,,2013-06-16 19:00:00,
2013-06-16 15:34:00,76.0,64.0,-100.00,West,270,10.0,-999.0,67,-99.99,,,-99.99,866.520020,,2013-06-16 19:34:00,
2013-06-16 15:43:00,76.0,64.0,-100.00,West,270,10.0,-999.0,67,-99.99,,,-99.99,866.520020,,2013-06-16 19:43:00,
2013-06-16 15:54:00,76.0,64.0,-100.00,West,270,10.0,-999.0,67,-99.99,,,-99.99,866.520020,,2013-06-16 19:54:00,
2013-06-16 16:00:00,77.0,63.0,-100.00,WSW,247,10.0,-999.0,60,-99.99,,,-99.99,716.880005,,2013-06-16 20:00:00,
2013-06-16 16:34:00,77.0,63.0,-100.00,WSW,247,10.0,-999.0,60,-99.99,,,-99.99,716.880005,,2013-06-16 20:34:00,
2013-06-16 16:43:00,77.0,63.0,-100.00,WSW,247,10.0,-999.0,60,-99.99,,,-99.99,716.880005,,2013-06-16 20:43:00,
2013-06-16 16:53:00,77.0,63.0,-100.00,WSW,247,10.0,-999.0,60,-99.99,,,-99.99,716.880005,,2013-06-16 20:53:00,
2013-06-16 18:00:00,78.0,59.0,-100.00,WSW,247,13.0,-999.0,51,-99.99,,,-99.99,534.760010,,2013-06-16 22:00:00,
2013-06-16 18:32:00,78.0,59.0,-100.00,WSW,247,13.0,-999.0,51,-99.99,,,-99.99,534.760010,,2013-06-16 22:32:00,
2013-06-16 18:42:00,78.0,59.0,-100.00,WSW,247,13.0,-999.0,51,-99.99,,,-99.99,534.760010,,2013-06-16 22:42:00,
2013-06-16 18:52:00,78.0,59.0,-100.00,WSW,247,13.0,-999.0,51,-99.99,,,-99.99,534.760010,,2013-06-16 22:52:00,
2013-06-16 19:00:00,77.0,59.0,-100.00,WSW,247,11.0,-999.0,53,-99.99,,,-99.99,367.720001,,2013-06-16 23:00:00,
2013-06-16 19:32:00,77.0,59.0,-100.00,WSW,247,11.0,-999.0,53,-99.99,,,-99.99,367.720001,,2013-06-16 23:32:00,
2013-06-16 19:42:00,77.0,59.0,-100.00,WSW,247,11.0,-999.0,53,-99.99,,,-99.99,367.720001,,2013-06-16 23:42:00,
2013-06-16 19:52:00,77.0,59.0,-100.00,WSW,247,11.0,-999.0,53,-99.99,,,-99.99,367.720001,,2013-06-16 23:52:00,
2013-06-16 22:00:00,68.0,61.0,-100.00,WSW,247,3.0,-999.0,78,-99.99,,,-99.99,2.320000,,2013-06-17 02:00:00,
2013-06-16 22:34:00,68.0,61.0,-100.00,WSW,247,3.0,-999.0,78,-99.99,,,-99.99,2.320000,,2013-06-17 02:34:00,
2013-06-16 22:43:00,68.0,61.0,-100.00,WSW,247,3.0,-999.0,78,-99.99,,,-99.99,2.320000,,2013-06-17 02:43:00,
2013-06-16 22:53:00,68.0,61.0,-100.00,WSW,247,3.0,-999.0,78,-99.99,,,-99.99,2.320000,,2013-06-17 02:53:00,
2013-06-16 23:00:00,65.0,60.0,-100.00,WSW,247,3.0,-999.0,83,-99.99,,,-99.99,0.000000,,2013-06-17 03:00:00,
2013-06-16 23:33:00,65.0,60.0,-100.00,WSW,247,3.0,-999.0,83,-99.99,,,-99.99,0.000000,,2013-06-17 03:33:00,
2013-06-16 23:44:00,65.0,60.0,-100.00,WSW,247,3.0,-999.0,83,-99.99,,,-99.99,0.000000,,2013-06-17 03:44:00,
2013-06-16 23:54:00,65.0,60.0,-100.00,WSW,247,3.0,-999.0,83,-99.99,,,-99.99,0.000000,,2013-06-17 03:54:00,